contact:dominique.lefevre@mio.osupytheas.fr, maurice.libes@osupytheas.fr, didier.mallarino@osupytheas.fr
Project:EMSO http://www.emso-fr.org/EMSO-France
Depth: 2436.0 m
Title:EMSO Ligure Ouest : Data MII capteur MICROCAT
DateTime_Computer,Latitude,Longitude,Temperature,Conductivity,Pressure,DateTime_Instrument
DateTime_Computer,Latitude,Longitude,degC,S m-1,dbar,DateTime_Instrument
2020-01-02T00:01:09Z,42.805,6.029,13.2990,4.59998,2470.04,2020-1-02T02:01:41Z
2020-01-02T00:04:13Z,42.805,6.029,13.2982,4.60010,2470.03,2020-1-02T02:04:44Z
2020-01-02T00:07:16Z,42.805,6.029,13.2986,4.60008,2470.017,2020-1-02T02:07:47Z
2020-01-02T00:10:19Z,42.805,6.029,13.2986,4.60005,2469.979,2020-1-02T02:10:50Z
2020-01-02T00:13:22Z,42.805,6.029,13.2973,4.59988,2470.017,2020-1-02T02:13:54Z
2020-01-02T00:16:25Z,42.805,6.029,13.2971,4.60006,2470.053,2020-1-02T02:16:57Z
2020-01-02T00:19:29Z,42.805,6.029,13.2978,4.60001,2470.03,2020-1-02T02:20:00Z
2020-01-02T00:22:32Z,42.805,6.029,13.2979,4.60012,2470.04,2020-1-02T02:23:03Z
2020-01-02T00:25:35Z,42.805,6.029,13.2979,4.60009,2470.03,2020-1-02T02:26:07Z
2020-01-02T00:28:38Z,42.805,6.029,13.2979,4.59996,2470.053,2020-1-02T02:29:10Z
2020-01-02T00:31:41Z,42.805,6.029,13.2992,4.60014,2469.984,2020-1-02T02:32:13Z
2020-01-02T00:34:45Z,42.805,6.029,13.2971,4.59995,2470.03,2020-1-02T02:35:16Z
2020-01-02T00:37:48Z,42.805,6.029,13.2987,4.60011,2470.03,2020-1-02T02:38:19Z
2020-01-02T00:40:51Z,42.805,6.029,13.2990,4.60019,2470.007,2020-1-02T02:41:23Z
2020-01-02T00:43:54Z,42.805,6.029,13.2986,4.60016,2470.007,2020-1-02T02:44:26Z
2020-01-02T00:46:58Z,42.805,6.029,13.2977,4.60013,2470.04,2020-1-02T02:47:29Z
2020-01-02T00:50:01Z,42.805,6.029,13.2993,4.60001,2469.993,2020-1-02T02:50:32Z
2020-01-02T00:53:04Z,42.805,6.029,13.3004,4.60035,2469.993,2020-1-02T02:53:35Z
2020-01-02T00:56:07Z,42.805,6.029,13.2974,4.59998,2469.993,2020-1-02T02:56:39Z
2020-01-02T00:59:10Z,42.805,6.029,13.2974,4.59994,2470.007,2020-1-02T02:59:42Z
2020-01-02T01:02:14Z,42.805,6.029,13.2972,4.60000,2470.017,2020-1-02T03:02:45Z
2020-01-02T01:05:17Z,42.805,6.029,13.2973,4.59988,2470.017,2020-1-02T03:05:48Z
2020-01-02T01:08:20Z,42.805,6.029,13.2979,4.59989,2469.993,2020-1-02T03:08:52Z
2020-01-02T01:11:23Z,42.805,6.029,13.2982,4.60014,2469.993,2020-1-02T03:11:55Z
2020-01-02T01:14:27Z,42.805,6.029,13.2982,4.60011,2469.993,2020-1-02T03:14:58Z
2020-01-02T01:17:30Z,42.805,6.029,13.2983,4.59994,2470.03,2020-1-02T03:18:01Z
2020-01-02T01:20:33Z,42.805,6.029,13.2975,4.59988,2470.03,2020-1-02T03:21:05Z
2020-01-02T01:23:36Z,42.805,6.029,13.2976,4.59988,2470.007,2020-1-02T03:24:08Z
2020-01-02T01:26:39Z,42.805,6.029,13.2976,4.60007,2470.017,2020-1-02T03:27:11Z
2020-01-02T01:29:43Z,42.805,6.029,13.2971,4.59991,2469.993,2020-1-02T03:30:14Z
2020-01-02T01:32:46Z,42.805,6.029,13.2975,4.60000,2470.03,2020-1-02T03:33:17Z
2020-01-02T01:35:49Z,42.805,6.029,13.2973,4.60013,2470.017,2020-1-02T03:36:21Z
2020-01-02T01:38:52Z,42.805,6.029,13.2981,4.59991,2470.03,2020-1-02T03:39:24Z
2020-01-02T01:41:56Z,42.805,6.029,13.2978,4.59993,2469.993,2020-1-02T03:42:27Z
2020-01-02T01:44:59Z,42.805,6.029,13.2976,4.60014,2470.017,2020-1-02T03:45:30Z
2020-01-02T01:48:02Z,42.805,6.029,13.2981,4.60019,2469.993,2020-1-02T03:48:33Z
2020-01-02T01:51:05Z,42.805,6.029,13.2983,4.60024,2469.993,2020-1-02T03:51:37Z
2020-01-02T01:54:09Z,42.805,6.029,13.2999,4.60041,2469.97,2020-1-02T03:54:40Z
2020-01-02T01:57:12Z,42.805,6.029,13.3001,4.60061,2470.007,2020-1-02T03:57:43Z
2020-01-02T02:00:15Z,42.805,6.029,13.3003,4.60021,2470.017,2020-1-02T04:00:47Z
2020-01-02T02:03:18Z,42.805,6.029,13.2991,4.60030,2469.993,2020-1-02T04:03:50Z
2020-01-02T02:06:22Z,42.805,6.029,13.2985,4.60006,2469.993,2020-1-02T04:06:53Z
2020-01-02T02:09:25Z,42.805,6.029,13.2982,4.60026,2469.993,2020-1-02T04:09:56Z
2020-01-02T02:12:28Z,42.805,6.029,13.2993,4.60023,2470.017,2020-1-02T04:12:59Z
2020-01-02T02:15:31Z,42.805,6.029,13.2992,4.60047,2469.993,2020-1-02T04:16:03Z
2020-01-02T02:18:34Z,42.805,6.029,13.3001,4.60031,2469.993,2020-1-02T04:19:06Z
2020-01-02T02:21:38Z,42.805,6.029,13.2991,4.60032,2469.993,2020-1-02T04:22:09Z
2020-01-02T02:24:41Z,42.805,6.029,13.2984,4.60029,2469.993,2020-1-02T04:25:12Z
2020-01-02T02:27:44Z,42.805,6.029,13.2988,4.60008,2470.007,2020-1-02T04:28:16Z
2020-01-02T02:30:47Z,42.805,6.029,13.2982,4.60027,2469.97,2020-1-02T04:31:19Z
2020-01-02T02:33:50Z,42.805,6.029,13.2985,4.60029,2469.984,2020-1-02T04:34:22Z
2020-01-02T02:36:54Z,42.805,6.029,13.2999,4.60017,2469.993,2020-1-02T04:37:25Z
2020-01-02T02:39:57Z,42.805,6.029,13.2984,4.60057,2469.993,2020-1-02T04:40:28Z
2020-01-02T02:43:00Z,42.805,6.029,13.2993,4.60019,2470.007,2020-1-02T04:43:32Z
2020-01-02T02:46:03Z,42.805,6.029,13.2990,4.60007,2470.007,2020-1-02T04:46:35Z
2020-01-02T02:49:06Z,42.805,6.029,13.2985,4.60041,2469.984,2020-1-02T04:49:38Z
2020-01-02T02:52:10Z,42.805,6.029,13.2993,4.60037,2469.993,2020-1-02T04:52:41Z
2020-01-02T02:55:13Z,42.805,6.029,13.2997,4.60042,2469.97,2020-1-02T04:55:44Z
2020-01-02T02:58:16Z,42.805,6.029,13.2989,4.60060,2469.947,2020-1-02T04:58:48Z
2020-01-02T03:01:19Z,42.805,6.029,13.2986,4.60005,2469.993,2020-1-02T05:01:51Z
2020-01-02T03:04:23Z,42.805,6.029,13.2993,4.60039,2469.984,2020-1-02T05:04:54Z
2020-01-02T03:07:26Z,42.805,6.029,13.3003,4.60033,2469.984,2020-1-02T05:07:57Z
2020-01-02T03:10:29Z,42.805,6.029,13.2981,4.60034,2469.97,2020-1-02T05:11:01Z
2020-01-02T03:13:32Z,42.805,6.029,13.2982,4.60069,2470.007,2020-1-02T05:14:04Z
2020-01-02T03:16:36Z,42.805,6.029,13.2993,4.60046,2469.984,2020-1-02T05:17:07Z
2020-01-02T03:19:39Z,42.805,6.029,13.2990,4.60031,2469.993,2020-1-02T05:20:10Z
2020-01-02T03:22:42Z,42.805,6.029,13.2998,4.60050,2469.97,2020-1-02T05:23:13Z
2020-01-02T03:25:45Z,42.805,6.029,13.2979,4.60057,2469.984,2020-1-02T05:26:17Z
2020-01-02T03:28:48Z,42.805,6.029,13.2986,4.60036,2469.96,2020-1-02T05:29:20Z
2020-01-02T03:31:52Z,42.805,6.029,13.2989,4.60003,2469.97,2020-1-02T05:32:24Z
2020-01-02T03:34:55Z,42.805,6.029,13.2991,4.60019,2469.947,2020-1-02T05:35:27Z
2020-01-02T03:37:58Z,42.805,6.029,13.2997,4.60014,2469.993,2020-1-02T05:38:30Z
2020-01-02T03:41:02Z,42.805,6.029,13.2983,4.60033,2469.97,2020-1-02T05:41:33Z
2020-01-02T03:44:05Z,42.805,6.029,13.2995,4.60024,2469.97,2020-1-02T05:44:36Z
2020-01-02T03:47:08Z,42.805,6.029,13.2996,4.60037,2469.97,2020-1-02T05:47:40Z
2020-01-02T03:50:11Z,42.805,6.029,13.2998,4.60025,2470.03,2020-1-02T05:50:43Z
2020-01-02T03:53:15Z,42.805,6.029,13.2984,4.60045,2469.96,2020-1-02T05:53:46Z
2020-01-02T03:56:18Z,42.805,6.029,13.2993,4.60030,2469.984,2020-1-02T05:56:49Z
2020-01-02T03:59:21Z,42.805,6.029,13.2989,4.60025,2469.947,2020-1-02T05:59:52Z
2020-01-02T04:02:24Z,42.805,6.029,13.2998,4.60001,2469.947,2020-1-02T06:02:56Z
2020-01-02T04:05:27Z,42.805,6.029,13.2999,4.60018,2470.007,2020-1-02T06:05:59Z
2020-01-02T04:08:31Z,42.805,6.029,13.3030,4.60014,2469.96,2020-1-02T06:09:02Z
2020-01-02T04:11:34Z,42.805,6.029,13.3008,4.60036,2469.97,2020-1-02T06:12:05Z
2020-01-02T04:14:37Z,42.805,6.029,13.3007,4.60056,2469.993,2020-1-02T06:15:09Z
2020-01-02T04:17:40Z,42.805,6.029,13.3000,4.60059,2469.947,2020-1-02T06:18:12Z
2020-01-02T04:20:44Z,42.805,6.029,13.3035,4.60045,2469.97,2020-1-02T06:21:15Z
2020-01-02T04:23:47Z,42.805,6.029,13.3000,4.60059,2469.97,2020-1-02T06:24:18Z
2020-01-02T04:26:50Z,42.805,6.029,13.2995,4.60082,2469.97,2020-1-02T06:27:22Z
2020-01-02T04:29:53Z,42.805,6.029,13.3014,4.60016,2469.97,2020-1-02T06:30:25Z
2020-01-02T04:32:57Z,42.805,6.029,13.2971,4.59988,2469.984,2020-1-02T06:33:28Z
2020-01-02T04:36:00Z,42.805,6.029,13.2967,4.59973,2469.97,2020-1-02T06:36:31Z
2020-01-02T04:39:03Z,42.805,6.029,13.2983,4.59981,2469.993,2020-1-02T06:39:35Z
2020-01-02T04:42:06Z,42.805,6.029,13.2983,4.59996,2469.947,2020-1-02T06:42:38Z
2020-01-02T04:45:09Z,42.805,6.029,13.2965,4.59977,2469.947,2020-1-02T06:45:41Z
2020-01-02T04:48:13Z,42.805,6.029,13.2969,4.59974,2469.947,2020-1-02T06:48:44Z
2020-01-02T04:51:16Z,42.805,6.029,13.2967,4.59971,2469.97,2020-1-02T06:51:47Z
2020-01-02T04:54:19Z,42.805,6.029,13.2966,4.59971,2469.97,2020-1-02T06:54:51Z
2020-01-02T04:57:22Z,42.805,6.029,13.2971,4.59968,2469.984,2020-1-02T06:57:54Z
2020-01-02T05:00:26Z,42.805,6.029,13.2968,4.59968,2469.97,2020-1-02T07:00:57Z
2020-01-02T05:03:29Z,42.805,6.029,13.2971,4.59970,2470.007,2020-1-02T07:04:00Z
2020-01-02T05:06:32Z,42.805,6.029,13.2967,4.59967,2469.984,2020-1-02T07:07:04Z
2020-01-02T05:09:36Z,42.805,6.029,13.2967,4.59968,2469.984,2020-1-02T07:10:07Z
2020-01-02T05:12:39Z,42.805,6.029,13.2971,4.59968,2469.947,2020-1-02T07:13:10Z
2020-01-02T05:15:42Z,42.805,6.029,13.2971,4.59968,2469.96,2020-1-02T07:16:14Z
2020-01-02T05:18:45Z,42.805,6.029,13.2973,4.59968,2470.007,2020-1-02T07:19:17Z
2020-01-02T05:21:49Z,42.805,6.029,13.2970,4.59970,2469.947,2020-1-02T07:22:20Z
2020-01-02T05:24:52Z,42.805,6.029,13.2970,4.59969,2469.993,2020-1-02T07:25:23Z
2020-01-02T05:27:55Z,42.805,6.029,13.2969,4.59969,2469.97,2020-1-02T07:28:27Z
2020-01-02T05:30:58Z,42.805,6.029,13.2967,4.59968,2469.993,2020-1-02T07:31:30Z
2020-01-02T05:34:02Z,42.805,6.029,13.2969,4.59968,2469.97,2020-1-02T07:34:33Z
2020-01-02T05:37:05Z,42.805,6.029,13.2968,4.59968,2470.007,2020-1-02T07:37:36Z
2020-01-02T05:40:08Z,42.805,6.029,13.2970,4.59970,2469.947,2020-1-02T07:40:39Z
2020-01-02T05:43:11Z,42.805,6.029,13.2971,4.59968,2469.984,2020-1-02T07:43:43Z
2020-01-02T05:46:14Z,42.805,6.029,13.2970,4.59968,2470.03,2020-1-02T07:46:46Z
2020-01-02T05:49:18Z,42.805,6.029,13.2968,4.59968,2469.97,2020-1-02T07:49:49Z
2020-01-02T05:52:21Z,42.805,6.029,13.2966,4.59967,2469.97,2020-1-02T07:52:52Z
2020-01-02T05:55:24Z,42.805,6.029,13.2968,4.59968,2469.97,2020-1-02T07:55:56Z
2020-01-02T05:58:27Z,42.805,6.029,13.2968,4.59972,2469.993,2020-1-02T07:58:59Z
2020-01-02T06:01:31Z,42.805,6.029,13.2971,4.59966,2470.03,2020-1-02T08:02:02Z
2020-01-02T06:04:34Z,42.805,6.029,13.2968,4.59972,2469.97,2020-1-02T08:05:05Z
2020-01-02T06:07:37Z,42.805,6.029,13.2968,4.59969,2469.984,2020-1-02T08:08:08Z
2020-01-02T06:10:40Z,42.805,6.029,13.2969,4.59968,2469.97,2020-1-02T08:11:12Z
2020-01-02T06:13:43Z,42.805,6.029,13.2968,4.59967,2469.984,2020-1-02T08:14:15Z
2020-01-02T06:16:47Z,42.805,6.029,13.2971,4.59967,2469.993,2020-1-02T08:17:18Z
2020-01-02T06:19:50Z,42.805,6.029,13.2971,4.59968,2469.993,2020-1-02T08:20:21Z
2020-01-02T06:22:53Z,42.805,6.029,13.2969,4.59971,2469.984,2020-1-02T08:23:25Z
2020-01-02T06:25:56Z,42.805,6.029,13.2967,4.59972,2469.947,2020-1-02T08:26:28Z
2020-01-02T06:29:00Z,42.805,6.029,13.2970,4.59968,2469.97,2020-1-02T08:29:31Z
2020-01-02T06:32:03Z,42.805,6.029,13.2972,4.59968,2469.984,2020-1-02T08:32:34Z
2020-01-02T06:35:06Z,42.805,6.029,13.2970,4.59967,2469.993,2020-1-02T08:35:37Z
2020-01-02T06:38:09Z,42.805,6.029,13.2969,4.59969,2470.007,2020-1-02T08:38:41Z
2020-01-02T06:41:12Z,42.805,6.029,13.2967,4.59967,2470.017,2020-1-02T08:41:44Z
2020-01-02T06:44:16Z,42.805,6.029,13.2972,4.59968,2469.993,2020-1-02T08:44:47Z
2020-01-02T06:47:19Z,42.805,6.029,13.2969,4.59971,2469.993,2020-1-02T08:47:50Z
2020-01-02T06:50:22Z,42.805,6.029,13.2970,4.59968,2470.053,2020-1-02T08:50:54Z
2020-01-02T06:53:25Z,42.805,6.029,13.2973,4.59967,2469.97,2020-1-02T08:53:57Z
2020-01-02T06:56:28Z,42.805,6.029,13.2970,4.59968,2469.947,2020-1-02T08:57:00Z
2020-01-02T06:59:32Z,42.805,6.029,13.2971,4.59968,2469.97,2020-1-02T09:00:03Z
2020-01-02T07:02:35Z,42.805,6.029,13.2967,4.59968,2469.984,2020-1-02T09:03:06Z
2020-01-02T07:05:38Z,42.805,6.029,13.2969,4.59967,2469.993,2020-1-02T09:06:10Z
2020-01-02T07:08:41Z,42.805,6.029,13.2970,4.59966,2470.04,2020-1-02T09:09:13Z
2020-01-02T07:11:45Z,42.805,6.029,13.2971,4.59967,2470.03,2020-1-02T09:12:16Z
2020-01-02T07:14:48Z,42.805,6.029,13.2968,4.59968,2470.007,2020-1-02T09:15:19Z
2020-01-02T07:17:51Z,42.805,6.029,13.2969,4.59967,2469.993,2020-1-02T09:18:23Z
2020-01-02T07:20:54Z,42.805,6.029,13.2964,4.59967,2469.993,2020-1-02T09:21:26Z
2020-01-02T07:23:58Z,42.805,6.029,13.2972,4.59967,2470.017,2020-1-02T09:24:29Z
2020-01-02T07:27:01Z,42.805,6.029,13.2968,4.59968,2470.007,2020-1-02T09:27:32Z
2020-01-02T07:30:04Z,42.805,6.029,13.2970,4.59967,2470.017,2020-1-02T09:30:35Z
2020-01-02T07:33:07Z,42.805,6.029,13.2971,4.59968,2470.017,2020-1-02T09:33:39Z
2020-01-02T07:36:10Z,42.805,6.029,13.2968,4.59968,2470.007,2020-1-02T09:36:42Z
2020-01-02T07:39:14Z,42.805,6.029,13.2967,4.59968,2469.97,2020-1-02T09:39:45Z
2020-01-02T07:42:17Z,42.805,6.029,13.2968,4.59970,2469.984,2020-1-02T09:42:48Z
2020-01-02T07:45:20Z,42.805,6.029,13.2974,4.59967,2470.007,2020-1-02T09:45:52Z
2020-01-02T07:48:23Z,42.805,6.029,13.2966,4.59968,2469.97,2020-1-02T09:48:55Z
2020-01-02T07:51:27Z,42.805,6.029,13.2971,4.59966,2470.03,2020-1-02T09:51:58Z
2020-01-02T07:54:30Z,42.805,6.029,13.2966,4.59967,2470.03,2020-1-02T09:55:01Z
2020-01-02T07:57:34Z,42.805,6.029,13.2971,4.59969,2469.984,2020-1-02T09:58:05Z
2020-01-02T08:00:37Z,42.805,6.029,13.2971,4.59968,2470.007,2020-1-02T10:01:08Z
2020-01-02T08:03:40Z,42.805,6.029,13.2967,4.59968,2469.993,2020-1-02T10:04:11Z
2020-01-02T08:06:43Z,42.805,6.029,13.2967,4.59970,2469.993,2020-1-02T10:07:15Z
2020-01-02T08:09:46Z,42.805,6.029,13.2971,4.59968,2470.03,2020-1-02T10:10:18Z
2020-01-02T08:12:50Z,42.805,6.029,13.2968,4.59968,2469.993,2020-1-02T10:13:21Z
2020-01-02T08:15:53Z,42.805,6.029,13.2970,4.59968,2470.017,2020-1-02T10:16:24Z
2020-01-02T08:18:56Z,42.805,6.029,13.2971,4.59968,2470.003,2020-1-02T10:19:28Z
2020-01-02T08:21:59Z,42.805,6.029,13.2967,4.59967,2470.017,2020-1-02T10:22:31Z
2020-01-02T08:25:03Z,42.805,6.029,13.2968,4.59969,2470.017,2020-1-02T10:25:34Z
2020-01-02T08:28:06Z,42.805,6.029,13.2964,4.59967,2470.03,2020-1-02T10:28:37Z
2020-01-02T08:31:09Z,42.805,6.029,13.2968,4.59968,2470.04,2020-1-02T10:31:41Z
2020-01-02T08:34:12Z,42.805,6.029,13.2971,4.59969,2469.993,2020-1-02T10:34:44Z
2020-01-02T08:37:16Z,42.805,6.029,13.2972,4.59968,2470.04,2020-1-02T10:37:47Z
2020-01-02T08:40:19Z,42.805,6.029,13.2970,4.59968,2470.053,2020-1-02T10:40:50Z
2020-01-02T08:43:22Z,42.805,6.029,13.2969,4.59969,2470.017,2020-1-02T10:43:53Z
2020-01-02T08:46:25Z,42.805,6.029,13.2971,4.59968,2470.063,2020-1-02T10:46:57Z
2020-01-02T08:49:29Z,42.805,6.029,13.2973,4.59968,2470.017,2020-1-02T10:50:00Z
2020-01-02T08:52:32Z,42.805,6.029,13.2972,4.59968,2470.053,2020-1-02T10:53:03Z
2020-01-02T08:55:35Z,42.805,6.029,13.2971,4.59968,2470.03,2020-1-02T10:56:06Z
2020-01-02T08:58:38Z,42.805,6.029,13.2972,4.59968,2470.04,2020-1-02T10:59:10Z
2020-01-02T09:01:41Z,42.805,6.029,13.2979,4.59986,2470.063,2020-1-02T11:02:13Z
2020-01-02T09:04:45Z,42.805,6.029,13.2981,4.60002,2470.04,2020-1-02T11:05:16Z
2020-01-02T09:07:48Z,42.805,6.029,13.2987,4.59983,2470.03,2020-1-02T11:08:19Z
2020-01-02T09:10:51Z,42.805,6.029,13.2980,4.59982,2470.087,2020-1-02T11:11:23Z
2020-01-02T09:13:54Z,42.805,6.029,13.2989,4.59979,2470.087,2020-1-02T11:14:26Z
2020-01-02T09:16:58Z,42.805,6.029,13.2980,4.60009,2470.077,2020-1-02T11:17:29Z
2020-01-02T09:20:01Z,42.805,6.029,13.2983,4.60011,2470.063,2020-1-02T11:20:32Z
2020-01-02T09:23:04Z,42.805,6.029,13.2987,4.60001,2470.1,2020-1-02T11:23:35Z
2020-01-02T09:26:07Z,42.805,6.029,13.2979,4.59991,2470.077,2020-1-02T11:26:39Z
2020-01-02T09:29:11Z,42.805,6.029,13.2976,4.59983,2470.077,2020-1-02T11:29:42Z
2020-01-02T09:32:14Z,42.805,6.029,13.2975,4.59983,2470.087,2020-1-02T11:32:45Z
2020-01-02T09:35:17Z,42.805,6.029,13.2978,4.59999,2470.1,2020-1-02T11:35:48Z
2020-01-02T09:38:20Z,42.805,6.029,13.2974,4.59994,2470.087,2020-1-02T11:38:52Z
2020-01-02T09:41:23Z,42.805,6.029,13.2980,4.59990,2470.1,2020-1-02T11:41:55Z
2020-01-02T09:44:27Z,42.805,6.029,13.2974,4.59986,2470.063,2020-1-02T11:44:58Z
2020-01-02T09:47:30Z,42.805,6.029,13.2972,4.59988,2470.087,2020-1-02T11:48:01Z
2020-01-02T09:50:33Z,42.805,6.029,13.2976,4.59998,2470.087,2020-1-02T11:51:04Z
2020-01-02T09:53:36Z,42.805,6.029,13.2975,4.59995,2470.087,2020-1-02T11:54:08Z
2020-01-02T09:56:39Z,42.805,6.029,13.2978,4.59990,2470.1,2020-1-02T11:57:11Z
2020-01-02T09:59:43Z,42.805,6.029,13.2978,4.59996,2470.133,2020-1-02T12:00:14Z
2020-01-02T10:02:46Z,42.805,6.029,13.2972,4.59981,2470.124,2020-1-02T12:03:18Z
2020-01-02T10:05:49Z,42.805,6.029,13.2972,4.59987,2470.1,2020-1-02T12:06:21Z
2020-01-02T10:08:53Z,42.805,6.029,13.2971,4.59973,2470.087,2020-1-02T12:09:24Z
2020-01-02T10:11:56Z,42.805,6.029,13.2973,4.59978,2470.133,2020-1-02T12:12:27Z
2020-01-02T10:14:59Z,42.805,6.029,13.2976,4.59994,2470.147,2020-1-02T12:15:30Z
2020-01-02T10:18:02Z,42.805,6.029,13.2970,4.59996,2470.124,2020-1-02T12:18:34Z
2020-01-02T10:21:05Z,42.805,6.029,13.2971,4.59980,2470.124,2020-1-02T12:21:37Z
2020-01-02T10:24:09Z,42.805,6.029,13.2969,4.59984,2470.133,2020-1-02T12:24:40Z
2020-01-02T10:27:12Z,42.805,6.029,13.2969,4.59976,2470.124,2020-1-02T12:27:43Z
2020-01-02T10:30:15Z,42.805,6.029,13.2971,4.59978,2470.147,2020-1-02T12:30:47Z
2020-01-02T10:33:18Z,42.805,6.029,13.2972,4.59976,2470.133,2020-1-02T12:33:50Z
2020-01-02T10:36:22Z,42.805,6.029,13.2972,4.59978,2470.124,2020-1-02T12:36:53Z
2020-01-02T10:39:25Z,42.805,6.029,13.2974,4.59983,2470.171,2020-1-02T12:39:56Z
2020-01-02T10:42:28Z,42.805,6.029,13.2971,4.59981,2470.133,2020-1-02T12:43:00Z
2020-01-02T10:45:31Z,42.805,6.029,13.2968,4.59981,2470.133,2020-1-02T12:46:03Z
2020-01-02T10:48:35Z,42.805,6.029,13.2969,4.59981,2470.147,2020-1-02T12:49:06Z
2020-01-02T10:51:38Z,42.805,6.029,13.2971,4.59976,2470.147,2020-1-02T12:52:09Z
2020-01-02T10:54:41Z,42.805,6.029,13.2970,4.59981,2470.133,2020-1-02T12:55:13Z
2020-01-02T10:57:44Z,42.805,6.029,13.2974,4.59975,2470.147,2020-1-02T12:58:16Z
2020-01-02T11:00:47Z,42.805,6.029,13.2967,4.59975,2470.133,2020-1-02T13:01:19Z
2020-01-02T11:03:51Z,42.805,6.029,13.2966,4.59975,2470.11,2020-1-02T13:04:22Z
2020-01-02T11:06:54Z,42.805,6.029,13.2973,4.59974,2470.171,2020-1-02T13:07:25Z
2020-01-02T11:09:57Z,42.805,6.029,13.2966,4.59976,2470.133,2020-1-02T13:10:29Z
2020-01-02T11:13:00Z,42.805,6.029,13.2971,4.59973,2470.147,2020-1-02T13:13:32Z
2020-01-02T11:16:04Z,42.805,6.029,13.2968,4.59969,2470.11,2020-1-02T13:16:35Z
2020-01-02T11:19:07Z,42.805,6.029,13.2978,4.59978,2470.147,2020-1-02T13:19:38Z
2020-01-02T11:22:10Z,42.805,6.029,13.2968,4.59975,2470.133,2020-1-02T13:22:42Z
2020-01-02T11:25:13Z,42.805,6.029,13.2967,4.59978,2470.133,2020-1-02T13:25:45Z
2020-01-02T11:28:17Z,42.805,6.029,13.2970,4.59976,2470.171,2020-1-02T13:28:48Z
2020-01-02T11:31:20Z,42.805,6.029,13.2968,4.59974,2470.194,2020-1-02T13:31:51Z
2020-01-02T11:34:23Z,42.805,6.029,13.2966,4.59978,2470.133,2020-1-02T13:34:55Z
2020-01-02T11:37:26Z,42.805,6.029,13.2969,4.59976,2470.147,2020-1-02T13:37:58Z
2020-01-02T11:40:30Z,42.805,6.029,13.2967,4.59980,2470.18,2020-1-02T13:41:01Z
2020-01-02T11:43:33Z,42.805,6.029,13.2970,4.59975,2470.133,2020-1-02T13:44:04Z
2020-01-02T11:46:36Z,42.805,6.029,13.2971,4.59974,2470.124,2020-1-02T13:47:07Z
2020-01-02T11:49:39Z,42.805,6.029,13.2964,4.59973,2470.156,2020-1-02T13:50:11Z
2020-01-02T11:52:42Z,42.805,6.029,13.2968,4.59978,2470.147,2020-1-02T13:53:14Z
2020-01-02T11:55:46Z,42.805,6.029,13.2968,4.59976,2470.156,2020-1-02T13:56:17Z
2020-01-02T11:58:49Z,42.805,6.029,13.2970,4.59982,2470.133,2020-1-02T13:59:21Z
2020-01-02T12:01:52Z,42.805,6.029,13.2973,4.59988,2470.147,2020-1-02T14:02:24Z
2020-01-02T12:04:56Z,42.805,6.029,13.2973,4.59983,2470.147,2020-1-02T14:05:27Z
2020-01-02T12:07:59Z,42.805,6.029,13.2974,4.59981,2470.171,2020-1-02T14:08:30Z
2020-01-02T12:11:02Z,42.805,6.029,13.2971,4.59986,2470.133,2020-1-02T14:11:33Z
2020-01-02T12:14:05Z,42.805,6.029,13.2974,4.59978,2470.156,2020-1-02T14:14:37Z
2020-01-02T12:17:08Z,42.805,6.029,13.2970,4.59980,2470.133,2020-1-02T14:17:40Z
2020-01-02T12:20:12Z,42.805,6.029,13.2973,4.59986,2470.18,2020-1-02T14:20:43Z
2020-01-02T12:23:15Z,42.805,6.029,13.2972,4.59982,2470.124,2020-1-02T14:23:46Z
2020-01-02T12:26:18Z,42.805,6.029,13.2966,4.59989,2470.147,2020-1-02T14:26:50Z
2020-01-02T12:29:21Z,42.805,6.029,13.2982,4.59993,2470.147,2020-1-02T14:29:53Z
2020-01-02T12:32:25Z,42.805,6.029,13.2974,4.59996,2470.156,2020-1-02T14:32:56Z
2020-01-02T12:35:28Z,42.805,6.029,13.2968,4.59973,2470.18,2020-1-02T14:35:59Z
2020-01-02T12:38:31Z,42.805,6.029,13.2970,4.59998,2470.156,2020-1-02T14:39:02Z
2020-01-02T12:41:34Z,42.805,6.029,13.2968,4.59981,2470.171,2020-1-02T14:42:06Z
2020-01-02T12:44:37Z,42.805,6.029,13.2969,4.59976,2470.11,2020-1-02T14:45:09Z
2020-01-02T12:47:41Z,42.805,6.029,13.2968,4.59972,2470.156,2020-1-02T14:48:12Z
2020-01-02T12:50:44Z,42.805,6.029,13.2971,4.59976,2470.156,2020-1-02T14:51:15Z
2020-01-02T12:53:47Z,42.805,6.029,13.2967,4.59976,2470.133,2020-1-02T14:54:19Z
2020-01-02T12:56:50Z,42.805,6.029,13.2969,4.60009,2470.147,2020-1-02T14:57:22Z
2020-01-02T12:59:53Z,42.805,6.029,13.2976,4.59976,2470.147,2020-1-02T15:00:25Z
2020-01-02T13:02:57Z,42.805,6.029,13.2964,4.59981,2470.133,2020-1-02T15:03:28Z
2020-01-02T13:06:00Z,42.805,6.029,13.2969,4.59978,2470.133,2020-1-02T15:06:31Z
2020-01-02T13:09:03Z,42.805,6.029,13.2971,4.59978,2470.147,2020-1-02T15:09:35Z
2020-01-02T13:12:06Z,42.805,6.029,13.2967,4.59974,2470.147,2020-1-02T15:12:38Z
2020-01-02T13:15:10Z,42.805,6.029,13.2967,4.59990,2470.18,2020-1-02T15:15:41Z
2020-01-02T13:18:13Z,42.805,6.029,13.2979,4.59989,2470.11,2020-1-02T15:18:44Z
2020-01-02T13:21:16Z,42.805,6.029,13.2977,4.59986,2470.171,2020-1-02T15:21:48Z
2020-01-02T13:24:19Z,42.805,6.029,13.2972,4.59986,2470.11,2020-1-02T15:24:51Z
2020-01-02T13:27:22Z,42.805,6.029,13.2970,4.59991,2470.124,2020-1-02T15:27:54Z
2020-01-02T13:30:26Z,42.805,6.029,13.2970,4.59982,2470.124,2020-1-02T15:30:57Z
2020-01-02T13:33:29Z,42.805,6.029,13.2968,4.59973,2470.147,2020-1-02T15:34:00Z
2020-01-02T13:36:32Z,42.805,6.029,13.2967,4.59976,2470.087,2020-1-02T15:37:04Z
2020-01-02T13:39:35Z,42.805,6.029,13.2971,4.59978,2470.147,2020-1-02T15:40:07Z
2020-01-02T13:42:39Z,42.805,6.029,13.2968,4.59986,2470.171,2020-1-02T15:43:10Z
2020-01-02T13:45:42Z,42.805,6.029,13.2968,4.59986,2470.11,2020-1-02T15:46:13Z
2020-01-02T13:48:45Z,42.805,6.029,13.2968,4.59980,2470.147,2020-1-02T15:49:17Z
2020-01-02T13:51:48Z,42.805,6.029,13.2976,4.59982,2470.124,2020-1-02T15:52:20Z
2020-01-02T13:54:52Z,42.805,6.029,13.2968,4.60009,2470.124,2020-1-02T15:55:23Z
2020-01-02T13:57:55Z,42.805,6.029,13.2969,4.60006,2470.133,2020-1-02T15:58:26Z
2020-01-02T14:00:58Z,42.805,6.029,13.2968,4.59981,2470.133,2020-1-02T16:01:30Z
2020-01-02T14:04:01Z,42.805,6.029,13.2975,4.59980,2470.1,2020-1-02T16:04:33Z
2020-01-02T14:07:05Z,42.805,6.029,13.2979,4.59985,2470.11,2020-1-02T16:07:36Z
2020-01-02T14:10:08Z,42.805,6.029,13.2970,4.59985,2470.133,2020-1-02T16:10:39Z
2020-01-02T14:13:11Z,42.805,6.029,13.2976,4.59992,2470.087,2020-1-02T16:13:43Z
2020-01-02T14:16:14Z,42.805,6.029,13.2967,4.59976,2470.1,2020-1-02T16:16:46Z
2020-01-02T14:19:17Z,42.805,6.029,13.2968,4.59978,2470.11,2020-1-02T16:19:49Z
2020-01-02T14:22:21Z,42.805,6.029,13.2973,4.59981,2470.156,2020-1-02T16:22:52Z
2020-01-02T14:25:24Z,42.805,6.029,13.2967,4.59978,2470.147,2020-1-02T16:25:55Z
2020-01-02T14:28:27Z,42.805,6.029,13.2967,4.59981,2470.11,2020-1-02T16:28:59Z
2020-01-02T14:31:30Z,42.805,6.029,13.2977,4.59981,2470.087,2020-1-02T16:32:02Z
2020-01-02T14:34:34Z,42.805,6.029,13.2979,4.60002,2470.147,2020-1-02T16:35:05Z
2020-01-02T14:37:37Z,42.805,6.029,13.2986,4.59981,2470.124,2020-1-02T16:38:08Z
2020-01-02T14:40:40Z,42.805,6.029,13.2970,4.59994,2470.087,2020-1-02T16:41:12Z
2020-01-02T14:43:43Z,42.805,6.029,13.2973,4.59980,2470.147,2020-1-02T16:44:15Z
2020-01-02T14:46:46Z,42.805,6.029,13.2979,4.59987,2470.1,2020-1-02T16:47:18Z
2020-01-02T14:49:50Z,42.805,6.029,13.2977,4.59986,2470.1,2020-1-02T16:50:21Z
2020-01-02T14:52:53Z,42.805,6.029,13.2974,4.59978,2470.147,2020-1-02T16:53:24Z
2020-01-02T14:55:56Z,42.805,6.029,13.2981,4.59999,2470.087,2020-1-02T16:56:28Z
2020-01-02T14:58:59Z,42.805,6.029,13.2976,4.59986,2470.1,2020-1-02T16:59:31Z
2020-01-02T15:02:02Z,42.805,6.029,13.2968,4.59981,2470.124,2020-1-02T17:02:34Z
2020-01-02T15:05:06Z,42.805,6.029,13.2972,4.60004,2470.087,2020-1-02T17:05:37Z
2020-01-02T15:08:09Z,42.805,6.029,13.2970,4.60013,2470.1,2020-1-02T17:08:40Z
2020-01-02T15:11:12Z,42.805,6.029,13.2967,4.59984,2470.124,2020-1-02T17:11:44Z
2020-01-02T15:14:15Z,42.805,6.029,13.2974,4.60003,2470.11,2020-1-02T17:14:47Z